Location: Recife
(8.0585°S, 34.8848°W)
Time: 06:44:50
(UTC-03:00)

Vanguard 1 - Pass Details

Date: 14 April 2026
Orbit: 654 x 3817 km, 34.2° (Epoch: 13 May)

Event Time Altitude Azimuth Distance (km) Brightness Sun altitude
Rises 06:35:41 0° 329° (NNW) 4,741 13.4 17.1°
Reaches altitude 10° 06:40:34 10° 346° (NNW) 3,179 12.7 18.3°
Maximum altitude 06:45:12 18° 26° (NNE) 2,170 12.6 19.4°
Drops below altitude 10° 06:48:48 10° 69° (ENE) 2,354 14.2 20.3°
Sets 06:51:39 0° 90° (E) 3,090 14.1 21.0°
